FW1794 Weather Reports


Display with metric or nautical units.
time (UTC)temp
F
wind
direction
speed
MPH
gust
MPH
rain 1hr
in
rain 24hr
in
rain mn
in
humidity
%
barometer
mb
20200405104526 51 0 7.0 8.0 0.00 0.10 0.08 83 1016.1
20200405103516 51 7 6.0 9.0 0.00 0.10 0.08 83 1016.3
20200405102518 51 16 7.0 11.0 0.00 0.10 0.08 83 1016.4
20200405101521 51 38 7.0 15.0 0.00 0.13 0.08 83 1016.4
20200405100522 51 28 8.0 13.0 0.00 0.13 0.08 83 1016.4
20200405095518 51 0 9.0 11.0 0.00 0.13 0.08 83 1016.2
20200405094519 51 26 9.0 14.0 0.00 0.13 0.08 83 1016.2
20200405093520 51 31 8.0 13.0 0.00 0.13 0.08 83 1016.6
20200405092520 51 38 7.0 12.0 0.03 0.13 0.08 84 1016.7
20200405091522 51 45 8.0 11.0 0.03 0.13 0.08 84 1016.9
20200405090522 51 42 8.0 12.0 0.03 0.13 0.08 84 1016.9
20200405085523 51 29 9.0 16.0 0.03 0.13 0.08 84 1016.8
20200405084524 51 45 10.0 13.0 0.03 0.13 0.08 84 1016.8
20200405083524 51 21 10.0 12.0 0.03 0.13 0.08 84 1017.1
20200405082525 51 23 9.0 13.0 0.00 0.10 0.05 84 1017.2
20200405081526 51 27 9.0 11.0 0.00 0.10 0.05 84 1017.4
20200405080525 51 30 9.0 17.0 0.00 0.10 0.05 84 1017.5
20200405075526 51 14 10.0 16.0 0.00 0.10 0.05 84 1017.6
20200405074525 51 7 8.0 15.0 0.00 0.10 0.05 84 1017.7
20200405073525 51 51 9.0 13.0 0.00 0.10 0.05 84 1017.7
20200405072525 51 34 7.0 11.0 0.00 0.10 0.05 84 1017.7
20200405071525 50 23 7.0 10.0 0.00 0.10 0.05 84 1017.6
20200405070525 50 30 8.0 13.0 0.00 0.10 0.05 84 1017.5
20200405065521 50 26 9.0 9.0 0.00 0.10 0.05 84 1017.5
20200405064526 50 27 8.0 16.0 0.00 0.10 0.05 84 1017.4
20200405063526 50 12 7.0 9.0 0.00 0.10 0.05 84 1017.4
20200405062521 50 34 8.0 11.0 0.00 0.10 0.05 84 1017.4
20200405061522 50 38 9.0 13.0 0.00 0.10 0.05 84 1017.5
20200405060521 50 47 9.0 12.0 0.00 0.10 0.05 84 1017.6
20200405055521 50 32 10.0 11.0 0.00 0.10 0.05 84 1017.7
20200405054518 50 38 9.0 22.0 0.00 0.10 0.05 84 1017.7
20200405053520 50 20 10.0 12.0 0.00 0.10 0.05 84 1017.8
20200405052520 50 12 10.0 19.0 0.00 0.10 0.05 84 1017.9
20200405051520 50 29 10.0 14.0 0.00 0.10 0.05 84 1017.9
20200405050520 50 38 10.0 22.0 0.00 0.10 0.05 84 1017.9
20200405045521 50 37 9.0 18.0 0.00 0.10 0.05 84 1018.0
20200405044519 50 6 10.0 15.0 0.00 0.10 0.05 84 1018.0
20200405043522 50 46 9.0 11.0 0.00 0.10 0.05 84 1018.0
20200405042522 50 60 9.0 15.0 0.00 0.10 0.05 84 1017.9
20200405041524 50 29 9.0 14.0 0.00 0.10 0.05 83 1018.3
20200405040525 50 20 8.0 13.0 0.00 0.10 0.05 83 1018.4
20200405035526 50 360 7.0 11.0 0.00 0.10 0.05 83 1018.3
20200405034524 50 31 7.0 13.0 0.00 0.10 0.05 83 1018.3
20200405033525 50 36 8.0 10.0 0.00 0.10 0.05 83 1018.4
20200405032525 50 17 7.0 13.0 0.00 0.10 0.05 83 1018.5
20200405031526 50 45 9.0 12.0 0.00 0.10 0.05 82 1018.0
20200405030527 50 12 10.0 13.0 0.00 0.10 0.05 82 1017.9
20200405025517 50 38 8.0 15.0 0.00 0.10 0.05 82 1017.8
20200405024522 50 45 7.0 14.0 0.00 0.10 0.05 81 1017.8
20200405023517 51 21 7.0 9.0 0.03 0.10 0.05 81 1018.0
20200405022518 51 28 6.0 10.0 0.03 0.10 0.05 81 1018.1
20200405021518 51 324 6.0 12.0 0.03 0.10 0.05 81 1018.6
20200405020518 51 32 6.0 10.0 0.03 0.10 0.05 81 1018.7
20200405015517 51 32 5.0 6.0 0.03 0.10 0.05 81 1018.8
20200405014521 51 6 5.0 7.0 0.03 0.10 0.05 80 1018.9
20200405013517 51 45 5.0 7.0 0.00 0.08 0.03 80 1019.0
20200405012516 51 17 4.0 8.0 0.00 0.08 0.03 80 1019.1
20200405011517 51 45 4.0 9.0 0.03 0.08 0.03 80 1019.2
20200405010518 51 7 4.0 7.0 0.03 0.08 0.03 80 1019.3
20200405005516 51 19 3.0 6.0 0.03 0.08 0.03 80 1019.5
20200405004518 51 77 3.0 4.0 0.03 0.08 0.03 79 1019.6
20200405003518 51 27 4.0 8.0 0.03 0.08 0.03 79 1019.4
20200405002518 51 27 5.0 8.0 0.03 0.08 0.03 79 1019.3
20200405001526 51 45 2.0 2.0 0.00 0.05 0.00 79 1019.7
20200405000526 51 31 2.0 3.0 0.00 0.05 0.00 79 1019.8
20200404235525 51 37 4.0 7.0 0.00 0.05 0.00 79 1019.9
20200404234525 51 10 3.0 5.0 0.00 0.05 0.00 79 1020.0
20200404233521 51 73 4.0 7.0 0.00 0.05 0.00 79 1019.5
20200404232520 51 29 4.0 6.0 0.00 0.05 0.00 79 1019.3
20200404231526 51 12 4.0 5.0 0.00 0.05 0.00 79 1019.4
20200404230526 51 37 4.0 5.0 0.00 0.05 0.00 79 1019.4
20200404225516 51 347 4.0 5.0 0.00 0.05 0.00 79 1019.5
20200404224517 51 27 3.0 5.0 0.00 0.05 0.00 79 1019.5
20200404223517 51 0 3.0 4.0 0.00 0.05 0.00 79 1019.6
20200404222521 51 19 4.0 6.0 0.00 0.05 0.00 79 1019.7
20200404221517 51 29 3.0 6.0 0.00 0.05 0.00 79 1019.8
20200404220518 51 0 4.0 5.0 0.00 0.05 0.00 79 1019.8
20200404215522 51 20 4.0 6.0 0.00 0.05 0.00 79 1019.9
20200404214522 51 0 4.0 5.0 0.00 0.05 0.00 79 1020.0
20200404213526 51 14 4.0 7.0 0.00 0.05 0.00 79 1019.6
20200404212525 51 8 4.0 5.0 0.00 0.05 0.00 79 1019.5
20200404211524 51 23 5.0 6.0 0.00 0.05 0.00 79 1019.5
20200404210524 51 2 4.0 9.0 0.00 0.05 0.00 79 1019.5
20200404205524 51 8 4.0 5.0 0.00 0.05 0.05 79 1019.7
20200404204525 51 37 4.0 8.0 0.00 0.05 0.05 79 1019.8
20200404203526 51 20 5.0 9.0 0.00 0.05 0.05 79 1019.8
20200404202525 51 35 5.0 6.0 0.00 0.05 0.05 79 1019.7
20200404201521 51 18 4.0 9.0 0.00 0.05 0.05 79 1019.7
20200404200518 51 50 3.0 5.0 0.00 0.05 0.05 79 1019.7
20200404195520 51 360 4.0 6.0 0.00 0.05 0.05 79 1019.7
20200404194521 51 15 4.0 8.0 0.00 0.05 0.05 79 1019.7
20200404193521 51 21 4.0 6.0 0.00 0.05 0.05 79 1019.3
20200404192521 51 6 5.0 8.0 0.00 0.05 0.05 79 1019.1
20200404191520 51 23 4.0 10.0 0.00 0.05 0.05 79 1019.2
20200404190522 51 38 2.0 4.0 0.00 0.05 0.05 79 1019.2
20200404185522 51 51 4.0 6.0 0.00 0.05 0.05 79 1019.1
20200404184522 51 80 3.0 9.0 0.00 0.05 0.05 78 1019.1
20200404183521 51 45 2.0 7.0 0.00 0.05 0.05 79 1019.1
20200404182522 51 44 2.0 6.0 0.00 0.05 0.05 79 1019.1
20200404181522 51 34 3.0 4.0 0.00 0.05 0.05 79 1019.1
20200404180523 51 35 4.0 11.0 0.00 0.05 0.05 78 1019.2
20200404175523 51 22 3.0 6.0 0.00 0.05 0.05 78 1019.4
20200404174524 51 19 3.0 3.0 0.00 0.05 0.05 78 1019.4
20200404173525 51 57 4.0 6.0 0.00 0.05 0.05 78 1019.3
20200404172524 51 21 4.0 5.0 0.00 0.05 0.05 78 1019.3
20200404171523 51 30 3.0 9.0 0.00 0.05 0.05 78 1019.3
20200404170524 51 29 3.0 4.0 0.00 0.05 0.05 78 1019.3
20200404165524 51 8 3.0 6.0 0.00 0.05 0.05 78 1019.4
20200404164524 51 62 3.0 5.0 0.00 0.05 0.05 77 1019.4
20200404163524 51 69 3.0 3.0 0.00 0.05 0.05 77 1019.1
20200404162523 51 36 2.0 4.0 0.00 0.05 0.05 77 1019.0
20200404161524 51 8 1.0 6.0 0.00 0.05 0.05 77 1019.1
20200404160524 51 45 3.0 3.0 0.00 0.05 0.05 77 1019.1
20200404155523 51 45 2.0 7.0 0.00 0.05 0.05 77 1019.1
20200404154523 51 334 2.0 3.0 0.00 0.05 0.05 78 1019.0
20200404153522 51 26 1.0 3.0 0.00 0.05 0.05 78 1019.3
20200404152523 51 34 1.0 2.0 0.00 0.05 0.05 78 1019.4
20200404151524 51 38 1.0 3.0 0.00 0.05 0.05 78 1019.2
20200404150524 51 334 2.0 3.0 0.00 0.05 0.05 78 1019.2
20200404145524 51 55 3.0 3.0 0.00 0.05 0.05 78 1018.9
20200404144525 51 28 4.0 8.0 0.00 0.05 0.05 78 1018.7
20200404143525 51 23 5.0 8.0 0.00 0.05 0.05 77 1019.2
20200404142524 51 36 5.0 10.0 0.00 0.05 0.05 77 1019.4
20200404141529 51 29 4.0 7.0 0.00 0.05 0.05 77 1019.1
20200404140523 51 23 3.0 8.0 0.00 0.05 0.05 77 1019.0
20200404135524 51 42 4.0 7.0 0.00 0.05 0.05 77 1019.1
20200404134525 51 6 4.0 7.0 0.00 0.05 0.05 77 1019.2
20200404133525 52 341 4.0 5.0 0.00 0.05 0.05 77 1019.4
20200404132525 52 16 3.0 5.0 0.03 0.05 0.05 77 1019.6
20200404131526 52 24 3.0 4.0 0.03 0.05 0.05 77 1019.3
20200404130524 52 17 4.0 5.0 0.03 0.05 0.05 77 1019.2
20200404125526 52 0 4.0 6.0 0.03 0.05 0.05 77 1019.6
20200404124526 52 14 3.0 8.0 0.03 0.05 0.05 77 1019.8
20200404123518 52 15 3.0 4.0 0.03 0.05 0.05 77 1019.7
20200404122518 52 16 3.0 4.0 0.00 0.03 0.03 77 1019.7
20200404121520 52 45 2.0 5.0 0.00 0.03 0.03 77 1019.3
20200404120521 52 38 2.0 3.0 0.00 0.03 0.03 77 1019.1
20200404115521 52 28 2.0 3.0 0.00 0.03 0.03 77 1018.9
20200404114521 52 75 2.0 3.0 0.00 0.03 0.03 77 1018.9
20200404113523 51 52 2.0 5.0 0.00 0.03 0.03 77 1019.0
20200404112522 52 63 2.0 2.0 0.00 0.03 0.03 77 1019.1
20200404111524 52 11 4.0 4.0 0.03 0.03 0.03 77 1019.1
20200404110524 52 31 4.0 8.0 0.03 0.03 0.03 77 1019.1
20200404105525 52 6 5.0 7.0 0.03 0.03 0.03 76 1019.2